This demonstration page uses our WeatherBlox Daily Observations layout. Learn more.

40.92945, -100.16068

Hourly Observations for February 19, 2019

Temp ( °F °C ) Dew Point ( °F °C ) Humidity (%) Winds ( mph kmh ) Pressure ( in mb ) Visibility ( mi km ) Precip ( " mm )
12:15 am 00:15 Cloudy with Light Snow 13 -10.5 9 -12.6 85 85 SE 5 7 30.6 1036 10 16.0934 0 0
12:35 am 00:35 Cloudy with Light Snow 13 -10.3 10 -12.5 84 84 SE 3 6 30.61 1036 10 16.0934 0 0
12:55 am 00:55 Cloudy with Light Snow 14 -10.2 10 -12.5 83 83 SE 5 7 30.61 1036 7 11.26538 0 0
1:15 am 01:15 Cloudy with Light Snow 14 -10.2 10 -12.3 85 85 Calm 30.61 1036 5 8.0467 0 0
1:35 am 01:35 Cloudy with Light Snow 14 -10.1 10 -12.2 85 85 SE 3 6 30.59 1036 10 16.0934 0 0
1:55 am 01:55 Cloudy with Light Snow 14 -10.1 10 -12.2 85 85 ESE 5 7 30.58 1036 7 11.26538 0 0
2:15 am 02:15 Cloudy with Light Snow 14 -10 10 -12 85 85 SE 6 9 30.57 1035 3 4.82802 0 0
2:35 am 02:35 Cloudy with Light Snow 14 -10 10 -12 85 85 SE 6 9 30.57 1035 7 11.26538 0 0
2:55 am 02:55 Cloudy with Light Snow 14 -10 10 -12 85 85 ESE 6 9 30.57 1035 7 11.26538 0 0
3:15 am 03:15 Cloudy with Light Snow 14 -10 10 -12 85 85 ESE 6 9 30.56 1035 7 11.26538 0 0
3:35 am 03:35 Cloudy with Light Snow 14 -10 10 -12 85 85 ESE 8 13 30.55 1035 10 16.0934 0 0
3:55 am 03:55 Cloudy 14 -10 10 -12 85 85 ESE 7 11 30.54 1034 10 16.0934 0 0
4:15 am 04:15 Cloudy 14 -10 10 -12 85 85 SE 8 13 30.54 1034 10 16.0934 0 0
4:35 am 04:35 Cloudy with Light Snow 14 -10 10 -12 85 85 SE 8 13 30.54 1034 7 11.26538 0 0
4:55 am 04:55 Cloudy with Light Snow 14 -10 10 -12 85 85 SE 9 15 30.54 1034 7 11.26538 0 0
5:15 am 05:15 Cloudy with Light Snow 14 -10 11 -11.8 87 87 ESE 8 13 30.53 1034 7 11.26538 0 0
5:35 am 05:35 Cloudy with Light Snow 14 -10 11 -11.8 87 87 SE 9 15 30.53 1034 7 11.26538 0 0
5:55 am 05:55 Cloudy with Light Snow 14 -10 11 -11.8 87 87 SE 8 13 30.52 1034 7 11.26538 0 0
6:15 am 06:15 Cloudy with Light Snow 14 -10 11 -11.8 87 87 ESE 7 11 30.52 1034 7 11.26538 0 0
6:35 am 06:35 Cloudy with Light Snow 14 -10 11 -11.7 88 88 SE 8 13 30.52 1034 10 16.0934 0 0
6:55 am 06:55 Cloudy with Light Snow 14 -10 11 -11.6 88 88 ESE 9 15 30.51 1033 7 11.26538 0 0
7:15 am 07:15 Cloudy with Light Snow 14 -9.9 11 -11.5 88 88 SE 9 15 30.51 1033 5 8.0467 0 0
7:35 am 07:35 Cloudy with Light Snow 14 -9.8 11 -11.5 88 88 SE 10 17 30.51 1033 1.75 2.816345 0 0
7:55 am 07:55 Cloudy with Light Snow 14 -9.8 11 -11.5 88 88 SE 10 17 30.51 1033 3 4.82802 0 0
8:15 am 08:15 Cloudy with Light Snow 14 -9.9 11 -11.5 88 88 SSE 10 17 30.51 1033 3 4.82802 0 0
8:35 am 08:35 Cloudy with Light Snow 14 -9.8 11 -11.5 88 88 SSE 10 17 30.51 1033 2.5 4.02335 0 0
8:55 am 08:55 Cloudy with Light Snow 15 -9.7 11 -11.5 87 87 SSE 9 15 30.51 1033 2.5 4.02335 0 0
9:15 am 09:15 Cloudy with Light Snow 15 -9.5 11 -11.5 86 86 SE 9 15 30.5 1033 1.25 2.011675 0 0
9:35 am 09:35 Cloudy with Light Snow 15 -9.4 11 -11.5 85 85 SE 10 17 30.5 1033 2 3.21868 0 0
9:55 am 09:55 Cloudy with Light Snow 15 -9.2 11 -11.5 84 84 SE 10 17 30.48 1032 1.25 2.011675 0 0
10:15 am 10:15 Cloudy with Light Snow 15 -9.2 11 -11.5 84 84 ESE 15 24 30.46 1032 2 3.21868 0 0
10:35 am 10:35 Cloudy with Light Snow 16 -9 12 -11 86 86 ESE 14 22 30.46 1032 2.5 4.02335 0 0
10:55 am 10:55 Cloudy with Light Snow 16 -8.8 13 -10.8 86 86 ESE 10 17 30.45 1031 2.5 4.02335 0 0
11:15 am 11:15 Cloudy with Light Snow 16 -8.8 12 -10.9 85 85 ESE 12 19 30.43 1030 3 4.82802 0 0
11:35 am 11:35 Cloudy with Light Snow 17 -8.5 13 -10.6 85 85 SE 10 17 30.43 1030 4 6.43736 0 0
11:55 am 11:55 Cloudy with Light Snow 17 -8.3 13 -10.5 84 84 ESE 12 19 30.42 1030 4 6.43736 0 0
12:15 pm 12:15 Cloudy with Light Snow 18 -7.8 14 -10 84 84 ESE 10 17 30.4 1029 4 6.43736 0 0
12:35 pm 12:35 Cloudy with Light Snow 18 -7.7 14 -10 84 84 SE 12 19 30.38 1029 4 6.43736 0 0
12:55 pm 12:55 Cloudy with Light Snow 18 -7.7 14 -10 84 84 ESE 10 17 30.36 1028 4 6.43736 0 0
1:15 pm 13:15 Cloudy with Haze 19 -7.3 14 -9.8 83 83 ESE 10 17 30.32 1027 5 8.0467 0 0
1:35 pm 13:35 Cloudy 19 -7.2 15 -9.7 83 83 ESE 12 19 30.31 1026 7 11.26538 0 0
1:55 pm 13:55 Cloudy 19 -7.1 15 -9.7 82 82 ESE 13 20 30.29 1026 7 11.26538 0 0
2:15 pm 14:15 Cloudy 19 -7 15 -9.7 81 81 ESE 14 22 30.28 1025 7 11.26538 0 0
2:35 pm 14:35 Cloudy 19 -7 14 -9.8 81 81 ESE 12 19 30.27 1025 10 16.0934 0 0
2:55 pm 14:55 Cloudy 19 -7 15 -9.6 82 82 ESE 13 20 30.24 1024 10 16.0934 0 0
3:15 pm 15:15 Cloudy 19 -7 15 -9.6 82 82 E 13 20 30.24 1024 10 16.0934 0 0
3:35 pm 15:35 Cloudy 19 -7 15 -9.5 83 83 E 13 20 30.23 1024 7 11.26538 0 0
3:55 pm 15:55 Cloudy 19 -7 15 -9.4 83 83 E 12 19 30.22 1023 7 11.26538 0 0
4:15 pm 16:15 Cloudy 20 -6.7 16 -9.1 83 83 E 10 17 30.22 1023 7 11.26538 0 0
4:35 pm 16:35 Cloudy 20 -6.6 16 -9 83 83 ESE 12 19 30.22 1024 7 11.26538 0 0
4:55 pm 16:55 Cloudy with Mist and Fog 20 -6.6 16 -8.8 85 85 E 10 17 30.21 1023 5 8.0467 0 0
5:15 pm 17:15 Cloudy with Light Snow 20 -6.8 16 -9 85 85 E 10 17 30.21 1023 3 4.82802 0 0
5:35 pm 17:35 Cloudy with Light Snow 20 -6.7 16 -8.7 86 86 E 12 19 30.2 1023 2.5 4.02335 0 0
6:15 pm 18:15 Cloudy with Light Snow 19 -7 16 -8.9 86 86 E 13 20 30.17 1022 2.5 4.02335 0 0
6:35 pm 18:35 Cloudy with Light Snow 19 -7 16 -9 86 86 E 9 15 30.16 1021 2.5 4.02335 0 0
6:55 pm 18:55 Cloudy with Light Snow 19 -7 16 -8.8 87 87 E 8 13 30.15 1021 2 3.21868 0 0
7:15 pm 19:15 Cloudy with Light Snow 19 -7 16 -8.8 87 87 E 10 17 30.14 1021 3 4.82802 0.01 0.254
7:35 pm 19:35 Cloudy with Light Snow 19 -7 16 -8.7 88 88 E 9 15 30.13 1020 1 1.60934 0.01 0.254
7:55 pm 19:55 Cloudy with Light Snow 19 -7 16 -8.7 88 88 E 9 15 30.13 1020 1.25 2.011675 0.02 0.508
8:15 pm 20:15 Cloudy with Light Snow 19 -7.1 16 -8.8 88 88 E 8 13 30.12 1020 1.75 2.816345 0 0
8:35 pm 20:35 Cloudy with Snow 19 -7.1 16 -9 86 86 E 9 15 30.12 1020 0.75 1.207005 0 0
8:55 pm 20:55 Cloudy with Light Snow 19 -7.2 16 -9 87 87 ESE 6 9 30.12 1020 1.5 2.41401 0 0
9:15 pm 21:15 Cloudy with Light Snow 19 -7.3 16 -9.1 87 87 E 8 13 30.11 1020 1.75 2.816345 0 0
9:35 pm 21:35 Cloudy with Light Snow 18 -7.6 15 -9.4 87 87 E 9 15 30.1 1019 2 3.21868 0.01 0.254
9:55 pm 21:55 Cloudy with Light Snow 18 -7.6 15 -9.5 86 86 E 7 11 30.09 1019 2.5 4.02335 0.01 0.254
10:15 pm 22:15 Cloudy with Light Snow 18 -7.7 15 -9.5 87 87 E 7 11 30.09 1019 2.5 4.02335 0 0
10:35 pm 22:35 Cloudy with Light Snow 18 -7.8 15 -9.6 87 87 E 8 13 30.08 1018 2 3.21868 0 0
10:55 pm 22:55 Cloudy with Light Snow 18 -8 15 -9.7 88 88 E 9 15 30.05 1018 1.75 2.816345 0 0
11:15 pm 23:15 Cloudy with Light Snow 18 -8 14 -9.8 87 87 E 7 11 30.04 1017 2.5 4.02335 0 0
11:35 pm 23:35 Cloudy with Light Snow 18 -8 14 -9.9 86 86 E 5 7 30.03 1017 2 3.21868 0 0
11:55 pm 23:55 Cloudy with Light Snow 17 -8.2 14 -10 87 87 E 5 7 30.03 1017 2 3.21868 0 0

Powered by AerisWeather